Eureka, NV

4:00 AM PDT on April 28, 2017 (GMT -0700)
Eureka

Weather History for KP68 - January, 2013

Change the Weather History Date:

Monday, January 28, 2013

  Actual Average Record
Temperature  
Mean Temperature 10 °F 25 °F  
Max Temperature 28 °F 39 °F 57 °F (2011)
Min Temperature -8 °F 12 °F -12 °F (1993)
Degree Days  
Heating Degree Days 55 40  
Month to date heating degree days 1394 1159  
Since 1 July heating degree days 3882 4165  
Cooling Degree Days 0 0  
Month to date cooling degree days 0 0  
Year to date cooling degree days 0 0  
Moisture  
Dew Point 10 °F    
Average Humidity 78    
Maximum Humidity 92    
Minimum Humidity 63    
Precipitation  
Precipitation 0.02 in 0.03 in 0.38 in (1968)
Month to date precipitation 1.04 0.66  
Year to date precipitation 1.04 0.66  
Sea Level Pressure  
Sea Level Pressure 30.10 in    
Wind  
Wind Speed 5 mph (SW)    
Max Wind Speed 15 mph    
Max Gust Speed 19 mph    
T = Trace of Precipitation, MM = Missing Value Source: NWS Daily Summary

Daily Weather History Graph

Daily Weather History Graph

Search for Another Location

Airport or City:

Trip Planner

Search our weather history database for the weather conditions in past years. The results will help you decide how hot, cold, wet, or windy it might be!

Date:

Astronomy

Jan. 28, 2013 Rise Set
Actual Time 6:54 AM PST 4:59 PM PST
Civil Twilight 6:25 AM PST 5:28 PM PST
Nautical Twilight 5:53 AM PST 6:00 PM PST
Astronomical Twilight 5:21 AM PST 6:32 PM PST
Moon 6:58 PM PST 7:23 AM PST
Length of Visible Light 11h 02m
Length of Day
10h 05m
Full, 97% of the Moon is Illuminated
Jan 28
Full
Feb 3
Last Quarter
Feb 9
New
Feb 17
First Quarter
Feb 25
Full

Hourly Weather History & Observations

Time (PST) Temp. Windchill Dew Point Humidity Pressure Visibility Wind Dir Wind Speed Gust Speed Precip Events Conditions
12:53 AM 9.0 °F -0.9 °F 6.1 °F 88% 30.04 in - SE 5.8 mph - N/A   Unknown
1:53 AM 10.9 °F 4.7 °F 8.1 °F 88% 30.03 in - South 3.5 mph - N/A   Unknown
2:53 AM 6.1 °F -5.6 °F 3.0 °F 87% 30.06 in - SSE 6.9 mph - N/A   Unknown
3:53 AM 1.0 °F -11.7 °F -2.0 °F 87% 30.07 in - SSE 6.9 mph - N/A   Unknown
4:53 AM -2.9 °F -13.3 °F -6.0 °F 87% 30.09 in - South 4.6 mph - N/A   Unknown
5:53 AM 1.0 °F -10.3 °F -2.0 °F 87% 30.08 in - South 5.8 mph - N/A   Unknown
6:53 AM -2.0 °F -16.6 °F -5.1 °F 87% 30.13 in - SSW 8.1 mph - N/A   Unknown
7:53 AM 3.9 °F -6.9 °F -0.9 °F 80% 30.12 in - South 5.8 mph - N/A   Unknown
8:53 AM 7.0 °F -3.3 °F 1.9 °F 80% 30.12 in - South 5.8 mph - N/A   Unknown
9:53 AM 12.9 °F 5.2 °F 9.0 °F 84% 30.13 in - South 4.6 mph - N/A   Unknown
10:53 AM 19.0 °F 12.3 °F 14.0 °F 81% 30.12 in - South 4.6 mph - N/A   Unknown
11:53 AM 24.1 °F - 15.1 °F 69% 30.10 in - Calm Calm - N/A   Unknown
12:53 PM 25.0 °F - 15.1 °F 66% 30.10 in - Calm Calm - N/A   Unknown
1:53 PM 25.0 °F 19.3 °F 15.1 °F 66% 30.09 in - SSE 4.6 mph - N/A   Unknown
2:53 PM 26.1 °F 20.5 °F 15.1 °F 63% 30.11 in - North 4.6 mph - N/A   Unknown
3:53 PM 26.1 °F 19.4 °F 16.0 °F 66% 30.13 in - WNW 5.8 mph - N/A   Unknown
4:53 PM 23.0 °F 12.4 °F 16.0 °F 74% 30.16 in - WNW 10.4 mph - N/A   Unknown
5:53 PM 21.0 °F 10.6 °F 14.0 °F 74% 30.17 in - WNW 9.2 mph - N/A   Unknown
6:53 PM 21.9 °F 13.4 °F 15.1 °F 75% 30.18 in - WNW 6.9 mph - N/A   Unknown
7:53 PM 21.9 °F 17.2 °F 17.1 °F 82% 30.15 in - NW 3.5 mph - N/A   Unknown
8:53 PM 21.0 °F - 18.0 °F 88% 30.13 in - Calm Calm - N/A   Unknown
9:53 PM 21.9 °F 13.4 °F 19.0 °F 89% 30.09 in - West 6.9 mph - 0.01 in   Unknown
10:53 PM 23.0 °F 15.8 °F 19.0 °F 85% 30.06 in - WNW 5.8 mph - N/A   Unknown
11:53 PM 23.0 °F 12.4 °F 19.9 °F 88% 30.02 in - West 10.4 mph - 0.01 in   Unknown